When you browse on this site, cookies collect data to enhance your experience and personalize the content and advertising you see.
Visit our Privacy Policy to learn more. By continuing to use the site, you agree to this use of cookies and data.
  • In Hungary
  • List of Countries
  • For 7 days
  • Water Temperature
  • Weather Map
  • News
  • Weather Widgets
  • user-avatar
    Login

    Hourly Weather Lozenec

    Today, 17 November, Sunday

    Time Temperature Precipitation Wind Pressure Humidity
    00:00 +15°C° 0 mm 2 mps 763 mmHg 95%
    01:00 +15°C° 0 mm 2 mps 763 mmHg 95%
    02:00 +15°C° 0 mm 2 mps 762 mmHg 95%
    03:00 +14°C° 0 mm 3 mps 762 mmHg 95%
    04:00 +14°C° 0 mm 3 mps 762 mmHg 95%
    05:00 +14°C° 0 mm 3 mps 762 mmHg 95%
    06:00 +16°C° 0 mm 3 mps 762 mmHg 94%
    07:00 +16°C° 0 mm 3 mps 762 mmHg 92%
    08:00 +15°C° 0 mm 4 mps 763 mmHg 91%
    09:00 +17°C° 0 mm 4 mps 763 mmHg 87%
    10:00 +17°C° 0 mm 4 mps 763 mmHg 82%
    11:00 +18°C° 0 mm 4 mps 763 mmHg 78%
    12:00 +18°C° 0 mm 4 mps 762 mmHg 76%
    13:00 +18°C° 0 mm 4 mps 762 mmHg 75%
    14:00 +19°C° 0 mm 4 mps 761 mmHg 74%
    15:00 +18°C° 0 mm 3 mps 761 mmHg 80%
    16:00 +17°C° 0 mm 3 mps 761 mmHg 86%
    17:00 +16°C° 0 mm 3 mps 761 mmHg 92%
    18:00 +16°C° 0 mm 3 mps 761 mmHg 91%
    19:00 +16°C° 0 mm 3 mps 761 mmHg 90%
    20:00 +16°C° 0 mm 2 mps 761 mmHg 89%
    21:00 +16°C° 0 mm 2 mps 761 mmHg 89%
    22:00 +16°C° 0 mm 2 mps 761 mmHg 89%
    23:00 +15°C° 0 mm 1 mps 761 mmHg 90%

    Tomorrow, 18 November, Monday

    Time Temperature Precipitation Wind Pressure Humidity
    00:00 +15°C° 0 mm 1 mps 761 mmHg 90%
    01:00 +15°C° 0 mm 1 mps 761 mmHg 90%
    02:00 +14°C° 0 mm 1 mps 761 mmHg 91%
    03:00 +14°C° 0 mm 1 mps 761 mmHg 90%
    04:00 +14°C° 0 mm 1 mps 761 mmHg 90%
    05:00 +14°C° 0 mm 2 mps 760 mmHg 89%
    06:00 +14°C° 0 mm 2 mps 761 mmHg 88%
    07:00 +15°C° 0 mm 2 mps 761 mmHg 86%
    08:00 +15°C° 0 mm 2 mps 761 mmHg 85%
    09:00 +17°C° 0 mm 2 mps 761 mmHg 76%
    10:00 +19°C° 0 mm 2 mps 761 mmHg 67%
    11:00 +21°C° 0 mm 3 mps 761 mmHg 57%
    12:00 +21°C° 0 mm 3 mps 761 mmHg 54%
    13:00 +22°C° 0 mm 3 mps 761 mmHg 50%
    14:00 +22°C° 0 mm 3 mps 761 mmHg 47%
    15:00 +21°C° 0 mm 3 mps 761 mmHg 51%
    16:00 +20°C° 0 mm 3 mps 761 mmHg 55%
    17:00 +19°C° 0 mm 3 mps 761 mmHg 59%
    18:00 +19°C° 0 mm 2 mps 762 mmHg 61%
    19:00 +18°C° 0 mm 2 mps 762 mmHg 62%
    20:00 +18°C° 0 mm 2 mps 762 mmHg 63%
    21:00 +18°C° 0 mm 2 mps 762 mmHg 64%
    22:00 +17°C° 0 mm 2 mps 762 mmHg 65%
    23:00 +17°C° 0 mm 2 mps 763 mmHg 66%

    Day after tomorrow, 19 November, Tuesday

    Time Temperature Precipitation Wind Pressure Humidity
    00:00 +17°C° 0 mm 2 mps 763 mmHg 68%
    01:00 +16°C° 0 mm 2 mps 763 mmHg 71%
    02:00 +16°C° 0 mm 2 mps 763 mmHg 73%
    03:00 +16°C° 0 mm 2 mps 763 mmHg 75%
    04:00 +16°C° 0 mm 1 mps 763 mmHg 76%
    05:00 +16°C° 0 mm 1 mps 763 mmHg 78%
    06:00 +16°C° 0 mm 1 mps 763 mmHg 78%
    07:00 +16°C° 0 mm 1 mps 764 mmHg 77%
    08:00 +16°C° 0 mm 1 mps 764 mmHg 76%
    09:00 +19°C° 0 mm 1 mps 764 mmHg 68%
    10:00 +21°C° 0 mm 1 mps 764 mmHg 59%
    11:00 +23°C° 0 mm 1 mps 764 mmHg 51%
    12:00 +23°C° 0 mm 1 mps 764 mmHg 49%
    13:00 +23°C° 0 mm 2 mps 763 mmHg 48%
    14:00 +23°C° 0 mm 2 mps 763 mmHg 46%
    15:00 +21°C° 0 mm 2 mps 763 mmHg 51%
    16:00 +19°C° 0 mm 2 mps 763 mmHg 56%
    17:00 +18°C° 0 mm 2 mps 763 mmHg 61%
    18:00 +17°C° 0 mm 2 mps 763 mmHg 63%
    19:00 +17°C° 0 mm 2 mps 763 mmHg 64%
    20:00 +16°C° 0 mm 2 mps 763 mmHg 66%
    21:00 +16°C° 0 mm 2 mps 763 mmHg 69%
    22:00 +15°C° 0 mm 2 mps 763 mmHg 72%
    23:00 +15°C° 0 mm 2 mps 763 mmHg 74%

    20 November, Wednesday

    Time Temperature Precipitation Wind Pressure Humidity
    00:00 +15°C° 0 mm 2 mps 762 mmHg 77%
    01:00 +14°C° 0 mm 2 mps 762 mmHg 81%
    02:00 +14°C° 0 mm 2 mps 762 mmHg 84%
    03:00 +14°C° 0 mm 2 mps 762 mmHg 86%
    04:00 +14°C° 0 mm 2 mps 762 mmHg 88%
    05:00 +13°C° 0 mm 3 mps 762 mmHg 90%
    06:00 +13°C° 0 mm 3 mps 762 mmHg 91%
    07:00 +13°C° 0 mm 3 mps 762 mmHg 91%
    08:00 +13°C° 0 mm 3 mps 761 mmHg 91%
    09:00 +15°C° 0 mm 4 mps 761 mmHg 82%
    10:00 +17°C° 0 mm 4 mps 761 mmHg 72%
    11:00 +19°C° 0 mm 4 mps 761 mmHg 63%
    12:00 +19°C° 0 mm 4 mps 761 mmHg 62%
    13:00 +19°C° 0 mm 4 mps 761 mmHg 60%
    14:00 +19°C° 0 mm 4 mps 760 mmHg 58%
    15:00 +18°C° 0 mm 4 mps 760 mmHg 65%
    16:00 +17°C° 0 mm 3 mps 760 mmHg 72%
    17:00 +16°C° 0 mm 3 mps 760 mmHg 79%
    18:00 +16°C° 0.1 mm 3 mps 760 mmHg 81%
    19:00 +16°C° 0.1 mm 2 mps 760 mmHg 83%
    20:00 +16°C° 0.1 mm 2 mps 760 mmHg 85%
    21:00 +14°C° 1.5 mm 3 mps 760 mmHg 87%
    22:00 +14°C° 1.5 mm 3 mps 760 mmHg 89%
    23:00 +14°C° 1.5 mm 3 mps 760 mmHg 91%

    21 November, Thursday

    Time Temperature Precipitation Wind Pressure Humidity
    00:00 +13°C° 0.4 mm 3 mps 760 mmHg 91%
    01:00 +13°C° 0.4 mm 3 mps 760 mmHg 90%
    02:00 +13°C° 0.4 mm 3 mps 760 mmHg 90%
    03:00 +14°C° 0 mm 2 mps 760 mmHg 91%
    04:00 +14°C° 0 mm 2 mps 760 mmHg 91%
    05:00 +14°C° 0 mm 2 mps 760 mmHg 91%
    06:00 +14°C° 0.1 mm 2 mps 760 mmHg 91%
    07:00 +14°C° 0.1 mm 2 mps 760 mmHg 90%
    08:00 +14°C° 0.1 mm 2 mps 760 mmHg 90%
    09:00 +15°C° 0.2 mm 2 mps 761 mmHg 84%
    10:00 +16°C° 0.2 mm 2 mps 761 mmHg 78%
    11:00 +17°C° 0.2 mm 2 mps 761 mmHg 72%
    12:00 +17°C° 0.2 mm 2 mps 760 mmHg 73%
    13:00 +17°C° 0.2 mm 3 mps 760 mmHg 73%
    14:00 +17°C° 0.2 mm 3 mps 760 mmHg 73%
    15:00 +17°C° 0.1 mm 3 mps 760 mmHg 78%
    16:00 +16°C° 0.1 mm 3 mps 760 mmHg 83%
    17:00 +14°C° 0.1 mm 3 mps 760 mmHg 88%
    18:00 +13°C° 0.1 mm 3 mps 761 mmHg 89%
    19:00 +13°C° 0.1 mm 3 mps 761 mmHg 90%
    20:00 +13°C° 0.1 mm 3 mps 761 mmHg 92%
    21:00 +13°C° 0.1 mm 3 mps 761 mmHg 92%
    22:00 +13°C° 0.1 mm 4 mps 762 mmHg 92%
    23:00 +13°C° 0.1 mm 4 mps 762 mmHg 92%

    22 November, Friday

    Time Temperature Precipitation Wind Pressure Humidity
    00:00 +13°C° 0.3 mm 4 mps 762 mmHg 91%
    01:00 +13°C° 0.3 mm 5 mps 762 mmHg 90%
    02:00 +13°C° 0.3 mm 5 mps 762 mmHg 89%
    03:00 +13°C° 0.2 mm 5 mps 762 mmHg 89%
    04:00 +13°C° 0.2 mm 6 mps 763 mmHg 89%
    05:00 +13°C° 0.2 mm 6 mps 763 mmHg 89%
    06:00 +11°C° 0.1 mm 6 mps 763 mmHg 87%
    07:00 +11°C° 0.1 mm 6 mps 763 mmHg 85%
    08:00 +11°C° 0.1 mm 7 mps 764 mmHg 83%
    09:00 +11°C° 0 mm 6 mps 764 mmHg 81%
    10:00 +13°C° 0 mm 6 mps 764 mmHg 78%
    11:00 +13°C° 0 mm 6 mps 765 mmHg 76%
    12:00 +13°C° 0 mm 6 mps 764 mmHg 75%
    13:00 +13°C° 0 mm 5 mps 764 mmHg 74%
    14:00 +13°C° 0 mm 5 mps 764 mmHg 73%
    15:00 +11°C° 0 mm 6 mps 764 mmHg 76%
    16:00 +11°C° 0 mm 6 mps 765 mmHg 79%
    17:00 +10°C° 0 mm 6 mps 765 mmHg 82%
    18:00 +10°C° 0 mm 6 mps 765 mmHg 82%
    19:00 +10°C° 0 mm 6 mps 765 mmHg 82%
    20:00 +9°C° 0 mm 5 mps 766 mmHg 82%
    21:00 +9°C° 0 mm 5 mps 766 mmHg 82%
    22:00 +9°C° 0 mm 5 mps 766 mmHg 81%
    23:00 +10°C° 0 mm 4 mps 766 mmHg 81%
    Show more